Starlink 32359

operational
NORAD ID: 61957 Int'l Des: 2024-209 Owner: SPXS Country: US Constellation: starlink
LEOCIRCULAR

Über Starlink 32359

Beschreibung wird geladen...

Live-Position

3D-Globus wird geladen...

Nächste Überflüge

Höhenverlauf

Altitude vs Time

uPlot chart will show altitude changes over time

Zweizeiliger Elementsatz

1 61957U 24209U 25308.85863931 .00016829 00000-0 57920-3 0 9998
2 61957 53.1613 2.3031 0001611 75.7357 284.3822 15.30190963 55805
Epoch: 4. Nov. 2025 • Age: 5 hours

Aktueller Status

Höhe 479.6 km
Geschwindigkeit 7.63 km/s
Subsatellitenpunkt 48.63°N, 9.61°W
Startdatum 14. Nov. 2024
Alter 0.9 years
Typ internet

Technische Details

Klassifizierung Payload
Masse 730.00 kg
Trockenmasse 700.00 kg
Gesamtmasse 730.00 kg
Länge 0.30 m
Durchmesser 4.10 m
Spannweite 29.00 m
Form Box + pan
Hersteller SPXS
Bus-Typ Starlink V2M
Phasenstatus In Orbit
Besitzer/Staat SPXS/US

Große Konstellationen

Loading constellations...